Погода в Аннолово

Россия / Санкт-Петербург и Ленинградская область     59°38′02″N   30°32′28″E
темп.,
°C
ветер,
м/с
пор.,
м/с
влажн.,
%
обл.,
%
осадки,
мм/ч
давл.,
гПа
погр.,
м
19 января, ср
ср1900:00−5юз51290100 0.0 1014340
03:00−3юз51395100 0.7 1011573
06:00−1зюз41295100 0.2 1009559
09:00−1зюз51192100 0.3 1007452
12:00−1юз4119391 0.0 1006376
15:00+1ююз61397100 0.0 1003437
18:00+1юз71394100 0.0 999700
21:00+2юз71388100 0.0 997834
20 января, чт
чт2000:00+1юз61492100 0.0 994594
03:00+1ююз71591100 0.0 992638
06:00+1ююз61587100 0.0 989647
09:00+1ю61488100 0.0 987704
12:000ю61398100 0.4 987767
15:000ююв51298100 1.4 985804
18:000ю51196100 0.4 985697
21:00−1ю4985100 0.5 986412
21 января, пт
пт2100:00−3ю499495 0.1 988358
03:00−5ююв389560 0.1 990202
06:00−6ююв369699 0.0 991182
09:00−7вюв3796100 0.0 993214
12:00−5вюв3695100 0.1 995306
15:00−6в369560 0.1 997245
18:00−9всв379790 0.0 1000158
21:00−11св279765 0.0 1003123
22 января, сб
сб2200:00−9ссв3996100 0.0 1006194
03:00−5ссв51296100 0.3 1007706
06:00−5св6109298 1.6 1009739
09:00−8св499498 1.6 1013359
12:00−9св399499 0.0 1015351
15:00−8ссв389389 0.0 1017406
18:00−10св279670 0.0 1020218
21:00−12св249766 0.0 102282
23 января, вс
вс2300:00−15в119850 0.0 10259
03:00−16в009842 0.0 10279
06:00−17юв119833 0.0 10289
09:00−17ю119822 0.0 10309
12:00−11ююз1293100 0.0 103275
15:00−9ююз23935 0.0 103287
18:00−11юз249594 0.0 103355
21:00−12ююз249585 0.0 103363